When you browse on this site, cookies collect data to enhance your experience and personalize the content and advertising you see.
Visit our Privacy Policy to learn more. By continuing to use the site, you agree to this use of cookies and data.
  • In Hungary
  • List of Countries
  • For 7 days
  • Water Temperature
  • Weather Map
  • News
  • Weather Widgets
  • user-avatar
    Login

    Hourly Weather Subic

    Today, 18 August, Sunday

    Time Temperature Precipitation Wind Pressure Humidity
    00:00 +28°C° 0 mm 2 mps 751 mmHg 92%
    01:00 +27°C° 0 mm 2 mps 751 mmHg 92%
    02:00 +27°C° 0 mm 2 mps 751 mmHg 92%
    03:00 +27°C° 0 mm 1 mps 751 mmHg 92%
    04:00 +27°C° 0 mm 1 mps 750 mmHg 92%
    05:00 +27°C° 0 mm 1 mps 750 mmHg 92%
    06:00 +28°C° 0 mm 1 mps 751 mmHg 89%
    07:00 +29°C° 0 mm 1 mps 751 mmHg 85%
    08:00 +30°C° 0 mm 1 mps 751 mmHg 82%
    09:00 +30°C° 0.2 mm 2 mps 751 mmHg 78%
    10:00 +31°C° 0.2 mm 3 mps 751 mmHg 75%
    11:00 +33°C° 0.2 mm 4 mps 751 mmHg 71%
    12:00 +33°C° 0.3 mm 4 mps 751 mmHg 71%
    13:00 +33°C° 0.3 mm 4 mps 750 mmHg 71%
    14:00 +33°C° 0.3 mm 4 mps 749 mmHg 71%
    15:00 +33°C° 0.2 mm 4 mps 749 mmHg 74%
    16:00 +32°C° 0.2 mm 4 mps 749 mmHg 76%
    17:00 +32°C° 0.2 mm 4 mps 749 mmHg 78%
    18:00 +30°C° 0.2 mm 4 mps 749 mmHg 82%
    19:00 +29°C° 0.2 mm 3 mps 749 mmHg 86%
    20:00 +28°C° 0.2 mm 3 mps 750 mmHg 90%
    21:00 +28°C° 0.1 mm 2 mps 750 mmHg 90%
    22:00 +28°C° 0.1 mm 2 mps 750 mmHg 90%
    23:00 +28°C° 0.1 mm 2 mps 751 mmHg 90%

    Tomorrow, 19 August, Monday

    Time Temperature Precipitation Wind Pressure Humidity
    00:00 +28°C° 0.1 mm 1 mps 750 mmHg 90%
    01:00 +27°C° 0.1 mm 1 mps 750 mmHg 90%
    02:00 +27°C° 0.1 mm 1 mps 749 mmHg 90%
    03:00 +27°C° 0 mm 1 mps 749 mmHg 90%
    04:00 +27°C° 0 mm 1 mps 749 mmHg 90%
    05:00 +25°C° 0 mm 0 mps 749 mmHg 90%
    06:00 +26°C° 0 mm 0 mps 749 mmHg 87%
    07:00 +29°C° 0 mm 1 mps 750 mmHg 84%
    08:00 +30°C° 0 mm 1 mps 750 mmHg 80%
    09:00 +31°C° 0.1 mm 1 mps 750 mmHg 77%
    10:00 +32°C° 0.1 mm 2 mps 750 mmHg 74%
    11:00 +33°C° 0.1 mm 3 mps 750 mmHg 71%
    12:00 +33°C° 0.3 mm 3 mps 749 mmHg 71%
    13:00 +33°C° 0.3 mm 4 mps 749 mmHg 72%
    14:00 +33°C° 0.3 mm 5 mps 748 mmHg 72%
    15:00 +33°C° 0.5 mm 4 mps 748 mmHg 75%
    16:00 +32°C° 0.5 mm 4 mps 748 mmHg 78%
    17:00 +30°C° 0.5 mm 4 mps 748 mmHg 80%
    18:00 +29°C° 0.2 mm 3 mps 748 mmHg 83%
    19:00 +29°C° 0.2 mm 3 mps 749 mmHg 86%
    20:00 +28°C° 0.2 mm 2 mps 749 mmHg 89%
    21:00 +28°C° 0.1 mm 2 mps 749 mmHg 89%
    22:00 +28°C° 0.1 mm 1 mps 750 mmHg 89%
    23:00 +28°C° 0.1 mm 1 mps 750 mmHg 89%

    Day after tomorrow, 20 August, Tuesday

    Time Temperature Precipitation Wind Pressure Humidity
    00:00 +27°C° 0.1 mm 1 mps 750 mmHg 89%
    01:00 +27°C° 0.1 mm 1 mps 749 mmHg 89%
    02:00 +27°C° 0.1 mm 1 mps 748 mmHg 89%
    03:00 +27°C° 0 mm 1 mps 748 mmHg 89%
    04:00 +27°C° 0 mm 1 mps 748 mmHg 89%
    05:00 +27°C° 0 mm 1 mps 748 mmHg 89%
    06:00 +28°C° 0.1 mm 1 mps 749 mmHg 86%
    07:00 +29°C° 0.1 mm 1 mps 749 mmHg 83%
    08:00 +30°C° 0.1 mm 1 mps 749 mmHg 80%
    09:00 +31°C° 0.2 mm 2 mps 749 mmHg 76%
    10:00 +32°C° 0.2 mm 2 mps 749 mmHg 72%
    11:00 +34°C° 0.2 mm 3 mps 749 mmHg 69%
    12:00 +34°C° 0.1 mm 4 mps 749 mmHg 68%
    13:00 +34°C° 0.1 mm 4 mps 748 mmHg 67%
    14:00 +34°C° 0.1 mm 5 mps 748 mmHg 67%
    15:00 +33°C° 0.1 mm 5 mps 748 mmHg 70%
    16:00 +32°C° 0.1 mm 5 mps 748 mmHg 73%
    17:00 +32°C° 0.1 mm 5 mps 747 mmHg 76%
    18:00 +30°C° 0.3 mm 4 mps 748 mmHg 80%
    19:00 +29°C° 0.3 mm 3 mps 749 mmHg 84%
    20:00 +28°C° 0.3 mm 3 mps 749 mmHg 88%
    21:00 +28°C° 0.4 mm 2 mps 750 mmHg 88%
    22:00 +28°C° 0.4 mm 2 mps 750 mmHg 88%
    23:00 +28°C° 0.4 mm 1 mps 750 mmHg 88%

    21 August, Wednesday

    Time Temperature Precipitation Wind Pressure Humidity
    00:00 +27°C° 0.2 mm 1 mps 750 mmHg 88%
    01:00 +27°C° 0.2 mm 1 mps 750 mmHg 87%
    02:00 +27°C° 0.2 mm 1 mps 749 mmHg 87%
    03:00 +27°C° 0.1 mm 1 mps 749 mmHg 87%
    04:00 +27°C° 0.1 mm 1 mps 749 mmHg 87%
    05:00 +27°C° 0.1 mm 1 mps 749 mmHg 87%
    06:00 +28°C° 0.1 mm 1 mps 749 mmHg 83%
    07:00 +29°C° 0.1 mm 1 mps 750 mmHg 79%
    08:00 +30°C° 0.1 mm 1 mps 750 mmHg 75%
    09:00 +31°C° 0.1 mm 2 mps 750 mmHg 71%
    10:00 +33°C° 0.1 mm 3 mps 750 mmHg 68%
    11:00 +34°C° 0.1 mm 3 mps 750 mmHg 65%
    12:00 +34°C° 0.2 mm 4 mps 750 mmHg 65%
    13:00 +34°C° 0.2 mm 4 mps 749 mmHg 65%
    14:00 +34°C° 0.2 mm 4 mps 749 mmHg 65%
    15:00 +33°C° 0.3 mm 4 mps 749 mmHg 67%
    16:00 +31°C° 0.3 mm 3 mps 749 mmHg 69%
    17:00 +31°C° 0.3 mm 3 mps 749 mmHg 71%
    18:00 +30°C° 0.3 mm 2 mps 749 mmHg 74%
    19:00 +29°C° 0.3 mm 1 mps 750 mmHg 78%
    20:00 +28°C° 0.3 mm 1 mps 750 mmHg 82%
    21:00 +28°C° 0.2 mm 1 mps 751 mmHg 81%
    22:00 +28°C° 0.2 mm 1 mps 751 mmHg 81%
    23:00 +28°C° 0.2 mm 1 mps 751 mmHg 80%

    22 August, Thursday

    Time Temperature Precipitation Wind Pressure Humidity
    00:00 +28°C° 0 mm 1 mps 751 mmHg 81%
    01:00 +28°C° 0 mm 1 mps 750 mmHg 82%
    02:00 +28°C° 0 mm 2 mps 750 mmHg 82%
    03:00 +28°C° 0 mm 1 mps 750 mmHg 83%
    04:00 +28°C° 0 mm 1 mps 749 mmHg 84%
    05:00 +27°C° 0 mm 1 mps 749 mmHg 85%
    06:00 +28°C° 0 mm 1 mps 750 mmHg 82%
    07:00 +29°C° 0 mm 1 mps 750 mmHg 78%
    08:00 +30°C° 0 mm 1 mps 750 mmHg 75%
    09:00 +31°C° 0 mm 1 mps 750 mmHg 71%
    10:00 +32°C° 0 mm 2 mps 750 mmHg 68%
    11:00 +34°C° 0 mm 2 mps 750 mmHg 64%
    12:00 +34°C° 0 mm 2 mps 750 mmHg 64%
    13:00 +34°C° 0 mm 3 mps 749 mmHg 64%
    14:00 +34°C° 0 mm 3 mps 749 mmHg 63%
    15:00 +33°C° 0 mm 3 mps 749 mmHg 66%
    16:00 +33°C° 0 mm 3 mps 749 mmHg 69%
    17:00 +31°C° 0 mm 3 mps 748 mmHg 73%
    18:00 +30°C° 0 mm 3 mps 749 mmHg 76%
    19:00 +29°C° 0 mm 2 mps 749 mmHg 79%
    20:00 +28°C° 0 mm 1 mps 750 mmHg 83%
    21:00 +28°C° 0.1 mm 1 mps 750 mmHg 84%
    22:00 +28°C° 0.1 mm 1 mps 750 mmHg 85%
    23:00 +28°C° 0.1 mm 1 mps 750 mmHg 86%

    23 August, Friday

    Time Temperature Precipitation Wind Pressure Humidity
    00:00 +28°C° 0.1 mm 1 mps 750 mmHg 86%
    01:00 +27°C° 0.1 mm 1 mps 749 mmHg 87%
    02:00 +27°C° 0.1 mm 1 mps 749 mmHg 88%
    03:00 +27°C° 0 mm 1 mps 749 mmHg 88%
    04:00 +27°C° 0 mm 1 mps 749 mmHg 88%
    05:00 +27°C° 0 mm 1 mps 749 mmHg 89%
    06:00 +28°C° 0.1 mm 1 mps 749 mmHg 85%
    07:00 +29°C° 0.1 mm 1 mps 750 mmHg 81%
    08:00 +30°C° 0.1 mm 1 mps 750 mmHg 77%
    09:00 +31°C° 0.1 mm 2 mps 750 mmHg 73%
    10:00 +32°C° 0.1 mm 2 mps 750 mmHg 70%
    11:00 +34°C° 0.1 mm 3 mps 750 mmHg 66%
    12:00 +34°C° 0 mm 3 mps 749 mmHg 66%
    13:00 +34°C° 0 mm 3 mps 749 mmHg 66%
    14:00 +34°C° 0 mm 4 mps 748 mmHg 66%
    15:00 +33°C° 0.1 mm 4 mps 748 mmHg 70%
    16:00 +31°C° 0.1 mm 3 mps 748 mmHg 74%
    17:00 +31°C° 0.1 mm 3 mps 748 mmHg 77%
    18:00 +30°C° 0.5 mm 2 mps 748 mmHg 81%
    19:00 +29°C° 0.5 mm 2 mps 749 mmHg 84%
    20:00 +28°C° 0.5 mm 1 mps 749 mmHg 87%
    21:00 +28°C° 0.1 mm 1 mps 750 mmHg 87%
    22:00 +28°C° 0.1 mm 1 mps 750 mmHg 87%
    23:00 +26°C° 0.1 mm 0 mps 750 mmHg 87%
    Show more